This demonstration page uses our WeatherBlox Daily Observations layout. Learn more.

39.92423, -83.80882

Hourly Observations for November 30, 2020

Temp ( °F °C ) Dew Point ( °F °C ) Humidity (%) Winds ( mph kmh ) Pressure ( in mb ) Visibility ( mi km ) Precip ( " mm )
12:56 am 00:56 Cloudy with Light Rain 41 5 38 3.3 89 89 NNW 6 9 29.79 1009 10 16.0934 0.001 0.001
1:56 am 01:56 Cloudy with Light Rain 44 6.7 36 2.2 73 73 WNW 9 15 29.76 1008 10 16.0934 0.001 0.001
2:56 am 02:56 Cloudy with Rain 41 5 36 2.2 82 82 N 17 28 29.76 1008 10 16.0934 0.001 0.001
3:56 am 03:56 Cloudy with Light Rain 36 2.2 36 2.2 100 100 N 12 19 29.73 1007 8 12.87472 0 0
4:21 am 04:21 Cloudy with Rain 37 3 37 3 100 100 N 12 19 29.74 1007 10 16.0934 0 0
4:53 am 04:53 Cloudy with Light Rain 36 2 36 2 100 100 N 10 17 29.73 1007 8 12.87472 0 0
4:56 am 04:56 Cloudy with Light Rain 36 2.2 36 2.2 100 100 N 12 19 29.7 1006 8 12.87472 0 0
5:56 am 05:56 Cloudy with Light Rain 35 1.7 35 1.7 100 100 NNW 12 19 29.7 1006 6 9.65604 0 0
6:14 am 06:14 Cloudy with Light Rain 36 2 36 2 100 100 NNW 12 19 29.71 1006 5 8.0467 0 0
6:56 am 06:56 Cloudy with Light Wintry Mix 34 1.1 34 1.1 100 100 N 12 19 29.68 1005 6 9.65604 0 0
7:56 am 07:56 Cloudy with Light Snow 34 1.1 34 1.1 100 100 NNW 13 20 29.68 1005 4 6.43736 0 0
8:26 am 08:26 Cloudy with Light Snow 34 1 34 1 100 100 NW 10 17 29.71 1006 1.75 2.816345 0 0
8:41 am 08:41 Cloudy with Light Snow 34 1 34 1 100 100 NW 10 17 29.71 1006 1 1.60934 0 0
8:56 am 08:56 Cloudy with Light Snow 33 0.6 33 0.6 100 100 NW 9 15 29.69 1005 0.75 1.207005 0 0
9:16 am 09:16 Cloudy with Light Snow 34 1 34 1 100 100 NW 12 19 29.7 1006 1 1.60934 0 0
9:24 am 09:24 Cloudy with Light Snow 34 1 34 1 100 100 NNW 12 19 29.7 1006 1.25 2.011675 0 0
9:56 am 09:56 Cloudy with Light Snow 33 0.6 33 0.6 100 100 NW 15 24 29.68 1005 1.5 2.41401 0 0
10:31 am 10:31 Cloudy with Light Snow 34 1 34 1 100 100 NNW 16 26 29.7 1006 1.5 2.41401 0 0
10:56 am 10:56 Cloudy with Light Snow 33 0.6 33 0.6 100 100 NNW 17 28 29.67 1005 2 3.21868 0 0
11:13 am 11:13 Windy with Snow Likely 34 1 34 1 100 100 NNW 21 33 29.7 1006 1.75 2.816345 0 0
11:56 am 11:56 Cloudy with Light Snow 33 0.6 33 0.6 100 100 NW 14 22 29.69 1005 1.25 2.011675 0 0
12:16 pm 12:16 Cloudy with Light Snow 34 1 34 1 100 100 NW 17 28 29.71 1006 1 1.60934 0 0
12:56 pm 12:56 Windy with Snow Likely 32 0 32 0 100 100 NW 20 31 29.7 1006 1 1.60934 0 0
1:56 pm 13:56 Cloudy with Light Snow 32 0 32 0 100 100 NW 14 22 29.7 1006 1 1.60934 0 0
2:56 pm 14:56 Cloudy with Light Snow 32 0 32 0 100 100 NW 17 28 29.7 1006 1 1.60934 0 0
3:04 pm 15:04 Cloudy with Light Snow 32 0 32 0 100 100 NW 15 24 29.73 1007 1.25 2.011675 0 0
3:56 pm 15:56 Cloudy with Light Snow 32 0 32 0 100 100 WNW 15 24 29.73 1007 1 1.60934 0 0
4:03 pm 16:03 Cloudy with Light Snow 32 0 32 0 100 100 NW 14 22 29.75 1008 0.75 1.207005 0 0
4:16 pm 16:16 Cloudy with Light Snow 32 0 32 0 100 100 NW 17 28 29.76 1008 1 1.60934 0 0
4:24 pm 16:24 Cloudy with Light Snow 32 0 32 0 100 100 WNW 16 26 29.76 1008 1.25 2.011675 0 0
4:56 pm 16:56 Cloudy with Light Snow 32 0 32 0 100 100 NW 15 24 29.75 1007 1.25 2.011675 0 0
5:21 pm 17:21 Cloudy with Light Snow 32 0 32 0 100 100 NW 15 24 29.77 1008 1 1.60934 0 0
5:40 pm 17:40 Cloudy with Light Snow 32 0 32 0 100 100 WNW 13 20 29.77 1008 1.5 2.41401 0 0
5:56 pm 17:56 Cloudy with Light Snow 32 0 32 0 100 100 NW 13 20 29.76 1008 1.75 2.816345 0 0
6:30 pm 18:30 Cloudy with Light Snow 32 0 32 0 100 100 NW 15 24 29.78 1009 2 3.21868 0 0
6:56 pm 18:56 Cloudy with Light Snow 32 0 32 0 100 100 NW 16 26 29.77 1008 1.75 2.816345 0 0
7:07 pm 19:07 Cloudy with Light Snow 32 0 32 0 100 100 NW 14 22 29.79 1009 2 3.21868 0 0
7:25 pm 19:25 Cloudy with Light Snow 32 0 32 0 100 100 NW 14 22 29.79 1009 2 3.21868 0 0
7:35 pm 19:35 Cloudy with Light Snow 32 0 32 0 100 100 NW 14 22 29.8 1009 1.75 2.816345 0 0
7:56 pm 19:56 Cloudy with Light Snow 31 -0.6 31 -0.6 100 100 NW 14 22 29.78 1009 1.75 2.816345 0 0
8:18 pm 20:18 Cloudy with Light Snow 30 -1 30 -1 100 100 NW 14 22 29.82 1010 2 3.21868 0 0
8:42 pm 20:42 Cloudy with Light Snow 30 -1 30 -1 100 100 NW 18 30 29.82 1010 4 6.43736 0 0
8:51 pm 20:51 Windy with Snow Likely 30 -1 30 -1 100 100 NNW 21 33 29.82 1010 4 6.43736 0 0
8:56 pm 20:56 Cloudy with Light Snow 31 -0.6 30 -1.1 96 96 NNW 18 30 29.79 1009 6 9.65604 0 0
9:03 pm 21:03 Cloudy with Light Snow 30 -1 30 -1 100 100 NNW 17 28 29.82 1010 7 11.26538 0 0
9:21 pm 21:21 Cloudy with Light Snow 30 -1 30 -1 100 100 NNW 16 26 29.82 1010 6 9.65604 0 0
9:29 pm 21:29 Cloudy with Light Snow 30 -1 30 -1 100 100 NNW 13 20 29.82 1010 4 6.43736 0 0
9:45 pm 21:45 Cloudy with Light Snow 30 -1 30 -1 100 100 NW 13 20 29.83 1010 2 3.21868 0 0
9:56 pm 21:56 Cloudy with Light Snow 31 -0.6 31 -0.6 100 100 NW 13 20 29.8 1009 2 3.21868 0 0
10:06 pm 22:06 Cloudy with Light Snow 30 -1 30 -1 100 100 NW 15 24 29.83 1010 3 4.82802 0 0
10:15 pm 22:15 Cloudy with Light Snow 30 -1 30 -1 100 100 NW 16 26 29.83 1010 2.5 4.02335 0 0
10:24 pm 22:24 Cloudy with Light Snow 30 -1 30 -1 100 100 NW 16 26 29.83 1010 3 4.82802 0 0
10:56 pm 22:56 Cloudy with Light Snow 30 -1.1 30 -1.1 100 100 NNW 17 28 29.8 1009 3 4.82802 0 0
11:24 pm 23:24 Cloudy with Light Snow 30 -1 28 -2 93 93 NW 16 26 29.84 1010 2.5 4.02335 0 0
11:34 pm 23:34 Cloudy with Light Snow 30 -1 28 -2 93 93 NNW 18 30 29.84 1010 4 6.43736 0 0
11:56 pm 23:56 Cloudy with Light Snow 30 -1.1 29 -1.7 96 96 NNW 15 24 29.81 1010 5 8.0467 0 0

Powered by AerisWeather